Flag for U.S.A. Weather past 2 weeks in Garland, Texas, U.S.A.

Now
36 °F

Sunny.


Feels Like: 29 °F
Forecast: 27 / 38 °F
Wind: 9 mph from North

Location: Mesquite Metro Airport

Current Time: Mar 5, 2015 at 2:22:41 PM

Latest Report: Mar 5, 2015 at 1:55 PM


Visibility: 10 mi

Pressure: 30.59 "Hg

Humidity: 52%

Dew point: 19 °F

Location of GarlandLocation

Historic Weather in Garland — Graph

°F

Garland temperature yesterday

Maximum temperature yesterday: 51 °F (at 2:35 AM)
Minimum temperature yesterday: 29 °F (at 11:55 PM)
Average temperature yesterday: 42 °F

Past Weeks' High & Low Weather Summary

 TemperatureHumidityPressure
High70 °F (Feb 20, 3:50 PM)100% (Feb 21, 7:00 AM)30.63 "Hg (Feb 21, 7:00 AM)
Low26 °F (Feb 24, 12:55 AM)33% (Feb 18, 2:50 PM)29.71 "Hg (Feb 21, 3:55 AM)
Average38 °F84%30.20 "Hg
* Reported Feb 18 12:50 PM — Mar 5 12:50 PM, Garland, Weather by CustomWeather, © 2015

Note: Actual official high and low records may vary slightly from our data, if they occured in-between our weather recording intervals... More about our weather records

Advertising

Garland weather history for previous 24 hours

 ConditionsComfort  
Time TempWeatherWind HumidityBarometerVisibility
12:50 PM
Thu, Mar 5
34 °FSunny.9 mph56%30.61 "Hg10 mi
11:50 AM32 °FSunny.8 mph55%30.63 "Hg10 mi
10:50 AM30 °FSunny.14 mph59%30.63 "Hg10 mi
9:50 AM28 °FSunny.14 mph64%30.61 "Hg10 mi
8:50 AM28 °FSunny.15 mph64%30.59 "Hg10 mi
7:50 AM27 °FSunny.15 mph69%30.54 "Hg10 mi
6:47 AM27 °FChilly.8 mph74%30.51 "HgN/A
4:35 AM26 °FPartly cloudy.20 mph87%30.42 "Hg10 mi
4:15 AM27 °FPassing clouds.14 mph86%30.42 "Hg10 mi
3:55 AM27 °FPassing clouds.21 mph89%30.39 "Hg10 mi
3:35 AM27 °FMostly cloudy.17 mph90%30.41 "Hg10 mi
3:15 AM27 °FOvercast.13 mph90%30.42 "Hg10 mi
2:55 AM27 °FMostly cloudy.15 mph91%30.40 "Hg5 mi
2:35 AM27 °FMostly cloudy.18 mph94%30.38 "Hg3 mi
2:15 AM27 °FOvercast.18 mph95%30.40 "Hg2 mi
1:55 AM27 °FMostly cloudy.16 mph96%30.40 "Hg1 mi
1:35 AM27 °FLow clouds.16 mph96%30.37 "Hg1 mi
1:15 AM27 °FLow clouds.14 mph96%30.36 "Hg1 mi
12:55 AM28 °FLow clouds.14 mph96%30.34 "Hg1 mi
12:15 AM29 °FMostly cloudy.17 mph95%30.32 "Hg1 mi
11:55 PM
Wed, Mar 4
29 °FMostly cloudy.18 mph95%30.30 "Hg2 mi
11:15 PM30 °FMostly cloudy.15 mph93%30.30 "Hg3 mi
10:55 PM30 °FOvercast.15 mph91%30.31 "Hg4 mi
10:15 PM30 °FOvercast.21 mph88%30.29 "Hg10 mi
9:35 PM31 °FOvercast.21 mph90%30.21 "Hg10 mi
9:15 PM31 °FOvercast.22 mph90%30.19 "Hg10 mi
8:55 PM31 °FOvercast.20 mph91%30.18 "Hg10 mi
7:50 PM32 °FChilly.10 mph93%30.14 "HgN/A
6:50 PM32 °FChilly.10 mph93%30.13 "HgN/A
5:50 PM32 °FChilly.13 mph93%30.10 "HgN/A
4:50 PM34 °FRain. Fog.16 mph93%30.03 "Hg5 mi
3:50 PM36 °FRain. Fog.22 mph93%30.01 "Hg4 mi
Weather by CustomWeather, © 2015

See weather overviewHow to use our weather pages